RH
19 25 28 29 28 26 23 22 20 20 21 23 24 26 26 27 27 23 22 21 20 25 29 31 30 31 36 36 39 42 41 43 46 47 48 49 50 50 51 50 49 49 47 44 43 44 47 48 50 55 57 57 60 63 64 66 67 66 66 67 68 69 68 67 68 68 65 62 63 66 65 66 70 69 66 64 62 65 66 63 63 63 64 65 65 64
21 28 29 25 24 23 21 19 18 18 19 21 23 25 25 26 26 21 21 20 18 24 28 28 29 30 34 36 37 40 42 43 44 46 48 49 49 49 50 50 49 48 46 44 44 43 44 46 47 51 55 56 59 62 63 65 66 65 66 67 69 69 69 67 67 68 66 63 65 66 66 68 70 69 67 64 61 64 65 64 63 61 62 64 64 60
26 28 25 22 23 21 19 18 18 18 18 20 21 24 25 24 23 21 19 18 18 22 27 28 30 30 32 35 37 38 40 40 40 43 46 47 49 49 50 50 49 49 48 47 45 44 43 44 45 48 52 55 57 60 62 63 64 65 66 68 69 70 69 67 65 68 67 65 64 63 65 67 68 69 67 63 60 63 64 64 63 60 60 63 65 62
30 27 21 21 22 21 21 18 18 19 18 20 21 24 25 21 22 24 20 17 16 19 25 28 30 31 32 36 38 36 36 36 37 39 41 44 47 47 48 48 49 50 50 49 45 44 43 43 45 46 50 54 56 59 61 63 64 64 65 67 69 70 70 68 65 68 68 66 65 64 65 66 67 68 65 63 63 63 63 62 63 61 59 60 62 63
27 23 19 20 21 23 23 20 19 20 20 20 20 22 24 21 22 23 21 18 16 17 22 27 34 36 34 40 40 35 34 34 35 38 39 41 43 44 46 47 47 48 49 49 46 44 43 43 44 45 48 52 55 58 60 62 63 63 64 65 68 69 71 69 66 68 70 69 68 68 68 68 69 69 65 65 66 65 63 61 61 61 60 60 60 62
23 20 19 21 22 23 24 23 20 20 21 21 19 19 20 20 21 22 21 19 19 23 23 26 40 43 35 37 39 35 35 35 35 38 39 40 41 43 45 46 47 47 47 47 45 44 43 42 44 46 47 50 53 56 58 61 61 62 63 64 67 69 70 70 67 68 71 71 70 70 71 72 73 71 67 65 65 66 64 61 59 60 60 60 61 60
20 19 19 21 22 23 24 25 21 19 23 23 19 17 17 19 21 22 21 21 25 28 23 23 36 43 36 33 35 34 34 36 37 37 38 38 39 41 43 44 45 46 46 46 44 43 43 43 44 47 48 49 52 54 56 59 60 61 63 64 67 69 70 70 68 69 72 72 71 70 69 70 72 71 68 64 63 64 64 62 58 58 60 60 62 61
19 20 22 21 22 23 25 26 22 19 23 24 18 16 17 18 19 21 21 22 25 24 23 23 27 37 40 33 29 29 33 37 38 38 38 37 37 38 39 41 43 45 46 46 44 43 42 43 44 46 48 48 50 52 55 58 59 60 62 64 66 68 70 70 68 69 71 72 71 70 70 70 70 70 68 64 62 63 63 62 60 58 60 61 62 62
19 22 23 22 23 24 24 24 21 19 21 21 18 16 17 17 18 20 21 22 22 21 28 29 24 34 42 35 28 27 33 39 40 39 38 38 37 37 37 38 41 43 44 44 43 43 42 42 44 45 47 48 48 51 55 57 58 60 61 64 66 69 71 70 69 70 71 72 71 71 71 71 71 69 68 65 61 61 62 62 62 61 62 63 64 64
20 22 21 21 24 23 22 21 20 21 21 18 17 17 17 17 18 19 19 21 21 24 32 28 23 32 41 38 32 30 34 38 39 37 36 38 38 36 36 37 39 42 43 43 42 41 41 41 42 44 45 47 49 50 54 56 58 60 62 64 67 69 71 72 71 71 72 72 72 73 72 72 72 71 69 68 63 60 61 63 64 65 66 66 67 67
20 19 19 20 21 20 20 20 20 20 19 17 17 17 18 19 19 20 22 23 24 29 30 23 20 26 35 39 35 31 30 31 34 35 35 37 38 37 36 35 37 41 43 43 42 41 40 40 41 43 45 46 49 51 54 56 57 60 62 64 67 69 71 73 73 73 73 73 74 73 73 72 72 72 71 70 68 64 62 63 64 66 68 68 68 68
20 20 21 19 17 18 17 17 19 18 17 18 18 19 22 24 22 21 23 24 30 36 30 21 19 21 33 42 35 27 24 24 28 32 33 35 38 39 37 36 36 39 42 43 42 42 41 41 42 44 45 47 50 53 55 56 57 60 62 63 66 69 71 73 74 75 75 75 75 74 74 73 71 71 71 70 69 66 64 63 64 66 68 70 71 70
24 22 20 18 18 18 17 16 18 19 18 19 20 22 27 29 27 27 28 28 32 37 29 20 17 20 31 39 32 25 23 21 23 28 30 31 36 39 37 36 37 38 41 42 43 43 42 42 44 45 47 48 51 55 56 56 57 60 63 64 66 68 70 73 75 76 76 76 75 74 74 73 71 70 69 69 67 66 65 65 65 67 68 70 72 72
29 24 20 19 18 17 17 17 19 21 21 20 21 24 28 30 31 33 33 27 26 31 25 16 16 21 25 25 23 22 21 19 19 23 27 29 32 37 37 36 36 37 40 42 42 43 43 43 43 45 47 48 52 55 56 57 57 60 63 64 66 68 69 72 74 76 76 76 75 74 73 72 71 69 67 68 67 64 65 65 65 65 65 67 69 70
31 31 25 21 18 16 16 14 15 18 19 19 18 19 25 28 30 33 31 25 26 30 23 14 18 22 21 20 19 17 18 18 18 20 25 28 30 34 35 35 35 37 39 41 42 42 43 43 43 44 46 48 51 54 56 57 58 59 62 64 66 68 70 72 74 76 76 76 75 74 73 71 70 69 66 67 67 65 64 64 64 63 63 64 63 64
23 27 20 17 17 13 13 12 11 14 17 17 15 16 21 24 26 29 29 27 28 28 21 18 23 23 21 22 17 13 16 17 16 21 27 29 31 33 35 35 35 37 38 40 42 43 44 43 43 44 46 47 49 52 55 57 59 60 61 63 64 65 69 71 73 76 75 75 74 73 74 72 70 69 67 67 69 68 65 63 63 62 62 63 61 61
22 21 13 14 17 12 13 13 9 14 18 17 15 16 18 16 15 21 28 28 23 22 24 22 23 21 16 15 13 10 14 16 16 22 29 30 30 33 35 36 35 36 38 40 42 44 44 44 44 43 45 47 48 50 53 55 59 60 61 64 64 64 67 69 71 73 74 74 75 73 73 73 71 70 68 67 68 68 67 65 63 62 62 63 63 61
31 31 17 12 16 13 12 12 9 11 15 16 17 15 13 12 12 17 26 28 21 21 27 23 20 22 19 19 20 12 9 14 15 20 29 31 31 33 35 35 35 35 37 39 41 44 44 44 44 43 44 46 46 49 52 54 57 60 61 63 65 65 66 68 70 71 73 74 74 74 74 73 72 71 69 67 66 67 68 68 65 63 64 65 64 62
38 43 27 13 15 13 10 13 14 12 10 13 14 12 13 16 16 18 23 26 22 21 26 23 19 21 23 25 23 12 7 11 12 17 28 32 32 34 34 35 36 35 36 39 41 43 44 44 44 42 43 45 46 48 50 53 56 60 62 63 65 66 65 67 69 71 73 74 74 75 74 74 73 72 70 69 68 69 69 70 68 66 65 64 65 65
39 47 37 19 14 13 12 14 16 14 11 11 11 10 13 16 17 18 18 22 27 27 25 23 21 23 24 23 17 10 9 10 8 14 27 34 34 34 34 34 36 36 37 39 40 43 44 43 43 42 42 45 46 47 49 53 56 59 62 64 65 67 66 68 70 71 73 74 73 75 75 75 74 73 73 71 71 72 70 70 69 68 66 64 64 66
43 55 52 36 24 19 17 14 15 15 13 13 12 12 13 13 15 16 14 19 30 37 32 23 24 28 22 14 11 10 9 8 8 11 24 34 33 32 33 33 35 36 36 38 39 41 43 43 42 41 42 44 46 48 49 52 55 58 62 65 66 68 69 70 70 71 73 74 74 75 75 76 75 74 75 74 74 74 72 71 71 70 69 68 66 66
47 59 65 57 43 30 20 13 12 12 12 13 13 13 12 13 15 16 18 18 19 32 40 33 29 30 21 11 9 10 9 8 7 7 19 33 33 31 32 31 34 35 35 37 38 40 42 42 43 41 41 44 46 49 50 51 54 57 61 64 66 68 70 70 71 72 73 74 75 75 75 75 76 76 76 76 75 75 74 73 73 72 73 72 69 68
41 56 69 67 51 35 24 15 12 11 11 11 11 12 11 12 14 15 22 21 11 19 33 30 26 27 26 22 13 9 9 9 7 6 17 30 31 29 29 30 33 34 34 36 36 37 41 41 42 42 42 44 47 49 50 51 53 56 60 63 66 68 69 70 71 71 72 74 75 76 76 76 77 77 77 77 77 76 75 73 73 74 75 75 72 70
43 57 65 66 55 36 24 18 13 11 11 12 13 13 10 11 11 12 23 26 16 15 18 20 22 22 28 32 21 12 10 7 7 8 16 27 29 27 28 29 33 34 33 35 35 36 39 40 43 45 45 46 47 49 50 50 51 54 58 62 65 68 69 69 71 72 73 74 75 76 77 77 77 77 78 78 77 76 75 74 72 72 73 74 75 73
52 59 60 72 71 43 24 23 20 15 13 12 13 12 9 11 11 12 21 22 17 17 16 19 25 23 28 34 25 18 15 9 7 9 16 25 26 25 28 30 32 34 34 35 36 37 39 41 44 47 48 48 48 49 50 49 50 51 54 60 63 66 68 69 70 72 73 74 74 75 77 77 77 77 77 78 77 77 76 74 74 72 71 72 73 74
50 55 55 74 84 59 40 42 38 27 20 14 13 12 11 11 9 13 22 20 19 24 20 18 23 23 25 26 18 16 15 9 9 12 16 22 24 25 29 30 32 34 35 36 37 38 40 42 46 48 49 49 47 47 49 48 49 49 52 56 60 64 67 68 70 71 72 73 74 75 76 76 76 76 76 76 76 76 76 75 74 73 70 70 70 72
47 53 53 62 72 62 54 53 44 37 34 25 14 11 13 11 8 15 23 23 27 32 25 20 20 19 20 19 15 18 18 12 13 18 20 22 24 26 28 30 32 32 34 35 35 38 42 44 46 47 48 48 46 46 48 48 47 48 51 54 57 61 65 67 69 70 71 73 74 74 75 75 75 75 75 75 75 74 75 74 74 73 72 70 69 70
53 59 54 52 53 49 44 39 32 32 37 32 20 13 13 12 9 12 17 24 32 32 25 25 25 21 21 20 19 24 29 26 25 27 27 24 24 27 28 30 32 32 32 34 35 38 42 45 47 48 47 46 45 45 47 47 46 47 49 53 55 58 62 65 68 69 71 72 73 74 75 75 75 74 73 74 74 73 73 73 73 73 72 71 70 69
57 61 51 47 50 44 36 32 29 29 31 30 24 14 11 12 12 12 14 22 31 28 21 25 30 25 20 19 19 24 32 33 32 35 35 29 25 27 28 29 30 31 32 33 35 37 41 44 47 48 48 46 45 46 47 48 48 47 49 52 54 57 60 63 66 69 70 71 72 73 74 74 75 74 74 74 73 74 73 72 72 72 71 72 71 69
56 65 53 49 52 44 34 31 30 31 30 26 21 14 12 14 11 10 13 19 26 27 23 27 34 28 19 18 21 25 29 31 33 38 37 32 29 28 28 28 28 29 31 32 33 36 39 43 47 48 49 48 46 46 47 48 49 49 50 51 52 56 59 62 65 68 69 70 71 71 72 74 74 74 75 75 74 74 73 72 72 71 71 71 71 70
58 67 55 52 54 44 34 33 35 36 33 27 21 14 10 11 13 12 12 17 21 21 26 35 38 30 22 23 27 27 28 30 32 37 37 32 29 29 28 27 26 28 31 31 32 35 38 42 46 49 50 49 48 47 47 48 49 50 50 50 51 53 58 62 65 67 69 70 70 70 71 72 73 74 74 74 74 74 73 73 72 71 70 70 70 70
58 65 58 55 59 50 35 35 39 37 32 29 30 28 17 12 15 11 8 21 25 19 27 38 35 27 25 26 27 26 25 27 29 32 35 35 32 30 29 28 27 29 30 31 34 36 38 41 46 49 49 47 47 46 46 48 49 49 49 49 49 49 53 60 65 67 69 69 69 70 71 71 73 74 74 74 74 74 73 73 72 71 70 70 69 70
56 65 64 61 66 56 36 36 43 42 43 44 46 46 35 20 17 15 22 46 52 37 34 36 30 30 30 22 22 27 28 31 35 35 34 35 36 35 32 30 31 32 32 34 36 35 36 39 44 47 47 46 46 45 45 46 48 49 48 48 48 48 49 55 62 66 68 69 69 70 71 71 72 73 73 74 73 74 74 73 73 71 70 69 68 68
56 62 64 63 64 53 41 47 53 49 53 53 44 46 48 41 45 56 64 74 73 62 54 43 30 28 28 26 35 48 51 52 56 56 50 44 44 46 46 43 42 41 40 40 40 40 42 44 45 46 44 43 43 43 43 45 46 47 47 47 48 48 48 51 57 63 68 69 69 70 70 71 72 72 73 73 72 73 74 73 73 71 69 68 67 67
59 60 62 60 54 53 61 72 72 67 64 54 41 44 50 48 55 71 78 77 74 73 72 61 40 28 35 49 57 61 64 62 61 65 65 61 59 61 64 64 62 60 59 56 55 57 59 58 56 53 47 43 42 42 42 43 44 46 47 47 48 48 49 50 52 58 64 67 68 69 70 71 72 72 72 72 72 73 73 73 72 71 70 68 67 66
55 57 61 58 53 60 72 76 74 74 68 55 48 51 53 51 53 68 83 83 74 73 76 72 56 38 43 60 63 59 62 61 60 63 63 62 63 62 63 65 65 65 67 68 69 70 69 64 58 54 48 43 42 42 42 43 45 46 46 46 48 49 49 49 50 53 58 64 66 67 69 70 71 71 71 71 71 72 72 72 72 71 70 68 66 65
50 57 56 55 59 61 61 67 75 78 73 69 67 61 56 57 58 66 86 89 74 69 74 76 71 59 53 58 59 57 59 62 69 71 62 58 60 58 59 60 59 61 64 66 70 72 70 66 60 56 55 52 51 49 45 43 45 47 48 47 47 48 49 49 50 51 54 59 63 65 66 68 70 71 71 70 71 71 71 71 71 71 70 68 66 65
47 57 52 51 59 54 50 70 90 91 88 87 78 60 51 55 54 54 75 88 77 68 69 72 77 76 69 65 62 57 59 73 85 82 68 62 60 57 60 60 59 61 63 63 68 72 73 71 69 69 68 66 65 62 53 46 43 43 46 47 47 49 49 50 50 50 51 55 59 61 64 65 67 69 70 70 71 70 70 69 70 70 69 68 67 64
42 56 58 54 55 47 47 72 94 96 92 86 73 58 51 57 56 54 73 89 80 67 66 70 75 77 74 74 70 64 68 85 94 84 70 65 63 61 64 65 63 64 64 64 68 73 74 73 72 71 70 69 70 67 60 55 50 47 48 48 46 47 48 49 50 49 50 51 54 57 60 63 65 67 68 69 70 70 70 69 68 68 68 68 67 64
49 57 64 60 54 48 52 71 90 96 89 77 68 61 56 56 56 61 84 97 84 69 65 67 74 76 75 75 75 75 81 89 89 79 69 66 67 66 67 69 69 69 69 69 70 71 72 71 69 71 74 76 75 71 65 60 57 60 63 58 51 49 48 47 46 46 47 48 50 54 57 61 64 65 66 67 67 68 69 68 68 68 68 68 67 65
57 55 62 62 54 48 51 65 83 93 86 74 70 66 59 60 65 78 96 101 87 74 67 65 71 74 74 76 79 83 84 81 77 75 72 73 77 76 71 70 70 70 72 74 73 70 71 71 70 73 77 77 76 75 72 66 65 72 74 66 61 60 55 48 44 42 43 44 46 50 54 58 62 64 64 64 64 66 68 68 69 69 68 69 69 67
72 69 70 68 57 51 58 70 85 93 83 73 73 68 60 69 87 96 97 94 84 72 65 67 72 71 71 75 78 79 78 74 74 76 76 78 82 83 79 76 75 75 75 77 76 73 72 74 76 79 79 75 73 75 74 74 79 84 79 72 73 71 61 52 47 43 41 42 45 48 51 54 59 62 64 65 64 65 68 68 69 69 69 69 70 69
80 83 87 82 70 70 81 86 91 94 84 74 79 80 77 87 99 97 89 88 82 66 59 67 73 72 72 74 74 76 76 75 77 78 78 79 80 81 82 82 82 81 78 78 80 78 75 77 80 82 80 74 71 73 73 77 86 90 84 82 81 73 63 55 50 45 42 40 42 47 50 53 57 61 63 65 65 66 67 68 70 71 70 71 71 72
77 85 98 95 82 87 100 95 87 90 88 82 86 93 90 87 89 89 89 90 83 67 58 62 67 70 75 76 77 79 79 79 80 80 80 81 80 80 83 83 84 84 82 81 82 80 79 83 83 80 77 73 71 73 72 75 84 89 86 85 82 75 68 61 53 49 47 43 42 46 49 52 57 61 63 65 66 67 68 69 71 72 73 73 73 74
71 71 83 87 79 82 89 83 72 74 80 83 88 91 83 72 71 80 88 90 87 79 67 60 59 63 70 77 82 84 83 83 83 82 83 85 84 83 84 83 83 83 82 82 81 79 80 85 84 79 77 75 72 73 72 72 79 85 85 83 81 78 75 68 61 57 54 48 46 48 51 54 59 62 64 65 66 68 70 72 74 75 76 76 77 77
52 49 63 76 76 72 71 66 59 59 68 78 83 82 76 70 69 76 85 87 85 81 76 68 61 57 59 69 81 87 88 87 85 84 86 88 87 86 85 84 84 82 83 85 84 80 80 83 83 81 81 78 74 72 72 72 74 79 80 79 81 81 77 73 69 65 60 55 51 53 57 61 65 67 67 68 69 69 71 73 74 76 78 80 80 80
45 45 55 67 70 69 70 68 59 55 62 73 80 78 73 72 71 71 80 87 79 72 74 75 67 57 52 56 70 82 87 87 88 88 88 88 89 88 86 87 86 84 84 86 84 80 80 84 87 87 84 81 76 73 73 72 71 73 74 75 79 81 77 74 73 70 67 61 56 57 61 64 68 72 73 74 74 74 74 75 76 78 81 83 84 84
55 55 61 67 67 65 69 70 61 54 54 61 77 84 80 80 76 64 64 74 74 68 69 71 70 67 58 51 57 71 82 86 88 89 89 89 90 88 87 88 88 85 83 81 78 78 80 83 87 86 83 81 78 74 73 73 71 70 70 72 77 79 79 76 74 73 72 66 60 61 63 65 70 76 79 81 82 82 82 83 82 82 83 83 83 84
61 67 69 71 69 66 68 69 63 59 54 52 63 74 73 75 78 68 59 62 64 64 66 66 66 68 65 58 56 63 75 85 89 89 90 92 90 88 89 89 87 84 82 79 76 76 77 78 81 80 79 79 77 74 73 73 72 71 69 70 74 78 80 80 76 74 75 73 69 68 69 71 75 80 83 87 88 88 90 90 88 87 86 84 83 81
69 78 75 76 83 81 75 70 69 72 71 62 59 62 60 60 69 71 67 62 58 58 63 67 63 59 60 63 60 59 70 84 88 86 89 92 91 90 91 88 84 81 79 78 76 73 73 76 77 77 77 79 77 76 75 72 71 70 68 68 73 77 81 84 81 75 74 78 79 78 77 80 82 83 84 86 86 87 90 91 90 90 88 85 84 83
72 79 77 82 92 86 73 67 69 74 76 68 60 60 58 57 63 69 68 67 64 59 61 70 69 61 59 64 61 58 67 81 85 85 88 90 89 89 89 87 84 81 79 80 80 78 78 78 77 78 80 81 78 76 76 72 70 69 67 68 72 75 80 85 85 78 72 73 79 80 81 83 84 82 83 84 84 84 85 87 88 89 88 88 88 88
Wind_Speed
7 5 8 12 11 12 13 11 8 5 6 7 5 6 8 8 7 9 11 9 9 9 11 15 14 12 17 19 19 20 18 17 17 17 16 15 15 15 15 16 16 17 16 18 24 29 33 34 34 35 36 36 35 36 38 39 39 37 36 35 35 37 38 38 35 32 33 33 30 30 29 28 27 26 24 25 25 22 22 22 20 18 16 15 18 21
6 8 13 15 11 9 10 10 8 7 9 9 6 7 7 8 10 10 11 10 9 9 9 13 13 12 18 20 20 20 20 18 19 19 18 19 18 15 17 18 18 15 13 16 19 24 30 32 33 34 35 36 35 36 39 40 41 39 37 37 36 37 39 40 38 35 35 35 34 32 31 30 29 28 26 26 26 23 22 24 22 18 17 16 17 18
8 13 18 14 8 7 8 10 11 11 11 9 7 6 6 8 8 8 11 9 8 8 7 13 14 11 17 21 21 21 20 18 20 22 21 21 20 16 17 18 17 16 14 15 16 19 26 31 33 32 33 37 38 37 39 40 41 40 38 37 37 38 39 40 39 36 35 36 35 34 32 32 30 29 27 25 25 23 22 25 24 20 19 18 18 17
9 13 15 11 7 10 10 11 13 12 10 9 8 6 7 9 7 7 9 5 5 7 8 14 13 7 13 17 19 22 21 18 20 23 21 21 21 20 20 19 18 18 17 17 17 17 22 28 32 32 32 36 37 36 38 39 40 39 39 39 39 39 39 40 40 37 35 34 34 33 32 32 30 28 27 25 24 23 23 25 26 24 22 20 19 18
11 6 9 12 12 13 12 12 13 10 9 10 11 9 8 12 11 10 8 4 5 7 9 13 7 3 10 16 17 18 19 18 18 20 19 18 20 20 20 19 19 20 19 19 19 18 18 23 29 32 33 34 36 37 38 40 41 40 40 41 40 40 40 40 40 38 35 33 32 30 28 27 26 26 27 27 26 24 23 25 26 26 25 23 21 20
13 6 11 16 15 14 13 12 13 12 8 10 14 14 14 15 14 10 7 4 5 6 6 13 8 3 9 17 19 17 16 17 16 18 19 18 18 18 18 18 19 19 18 19 21 19 18 22 28 31 33 34 35 38 41 43 42 41 41 42 41 41 40 41 41 39 36 34 34 31 28 28 26 26 28 31 30 27 25 26 26 25 25 25 23 21
10 9 10 14 16 16 15 12 14 14 8 8 14 16 17 17 14 10 7 4 4 5 5 12 11 5 7 13 18 19 19 20 19 19 21 19 17 17 16 18 18 18 17 18 19 19 18 21 25 28 33 36 36 39 42 42 42 41 41 41 42 41 40 41 41 40 38 36 36 35 33 32 30 29 30 33 33 30 27 26 27 26 25 26 25 23
10 13 12 13 16 15 14 12 13 15 10 8 11 13 16 16 15 13 9 5 5 5 4 8 8 5 5 11 16 20 19 19 20 21 21 19 19 19 18 19 19 20 19 18 18 19 19 21 25 28 34 37 38 39 40 41 41 42 42 42 42 42 41 41 42 42 40 38 38 37 34 33 32 32 31 32 33 31 27 25 27 28 27 27 27 25
10 15 15 14 13 11 13 13 14 16 13 7 8 10 14 16 16 12 8 6 5 5 5 5 5 3 5 9 13 16 17 18 21 23 22 21 21 20 20 20 20 21 21 20 20 21 20 22 28 33 36 38 39 39 40 41 42 42 43 43 42 41 41 41 42 43 43 41 40 38 35 33 32 33 32 32 33 32 29 26 26 28 29 30 29 26
7 12 15 14 12 10 12 13 12 15 13 8 7 9 10 14 15 10 8 7 5 5 7 7 5 4 4 6 10 11 13 16 19 21 21 21 21 21 20 21 21 19 18 19 21 22 23 27 32 35 35 37 38 39 41 41 41 41 42 42 41 41 41 41 43 44 43 42 39 38 37 35 32 32 32 31 32 33 31 28 27 28 30 31 30 28
6 7 12 14 12 8 9 12 13 14 13 9 9 9 8 9 9 7 6 5 5 6 8 9 8 7 5 5 8 10 13 18 18 17 18 18 20 21 20 20 20 18 17 18 20 20 23 29 32 33 33 35 36 38 39 39 39 40 40 41 42 42 41 42 43 44 43 42 40 40 39 38 35 33 32 31 32 33 33 31 29 29 30 31 31 29
11 9 8 11 13 11 8 10 12 14 13 9 8 8 7 5 5 4 4 5 6 5 7 10 10 9 7 5 6 11 17 20 19 18 19 19 21 21 19 19 20 19 19 18 18 18 19 21 24 28 31 33 34 35 37 38 38 39 40 42 41 41 41 41 42 43 43 42 41 40 40 39 38 35 34 34 34 34 34 34 31 30 30 31 31 30
12 13 9 7 12 15 11 8 9 11 13 11 7 7 6 5 4 5 4 4 5 5 6 9 10 8 7 6 7 13 17 18 17 19 22 22 22 21 19 19 18 17 18 17 17 17 17 17 18 23 29 31 32 35 38 39 39 38 40 42 41 41 42 42 42 43 42 42 42 41 40 40 38 37 36 35 35 36 35 35 33 31 31 31 31 31
8 11 13 12 10 13 15 9 6 8 10 11 8 7 6 5 5 6 5 3 4 5 7 8 8 5 5 6 8 13 15 16 15 18 23 23 22 22 20 19 17 17 17 17 17 17 17 18 17 22 28 31 32 36 39 40 40 39 39 41 42 42 43 43 43 44 43 43 43 42 42 41 39 38 37 36 36 37 36 35 34 33 33 32 32 33
7 8 12 15 7 9 15 12 8 8 9 11 9 7 6 6 6 5 4 4 4 4 5 6 6 6 6 6 9 13 14 14 12 13 20 21 20 21 20 19 18 18 17 16 16 18 19 20 20 24 29 32 34 37 39 39 41 41 40 42 43 42 43 43 43 44 44 44 43 42 41 41 40 39 38 36 36 37 37 36 35 35 34 34 34 34
9 7 6 12 9 8 14 13 10 10 9 10 9 8 8 6 5 3 3 5 5 3 4 5 5 5 5 5 7 9 10 14 14 12 18 21 19 19 18 18 18 18 18 17 17 18 19 20 22 25 29 32 35 37 38 39 41 41 41 43 44 44 43 43 43 44 44 44 43 42 41 41 40 39 38 36 34 35 36 36 36 36 35 35 35 34
5 7 3 9 13 13 14 13 13 11 7 6 9 9 8 6 6 4 4 2 4 4 5 4 3 3 3 4 6 6 6 10 13 12 18 21 21 20 18 17 18 17 18 18 17 18 19 19 21 26 30 32 34 36 38 40 42 44 43 43 44 44 43 44 43 44 44 43 42 42 41 40 40 39 38 37 36 35 35 36 36 36 35 35 34 33
4 6 6 8 15 16 15 12 13 13 8 6 9 9 6 5 4 4 2 3 2 4 5 3 4 3 3 5 6 7 8 8 10 12 17 20 21 20 19 19 20 20 19 20 20 19 19 19 21 26 31 33 36 37 40 42 44 45 44 44 44 43 43 44 44 43 43 42 41 40 41 40 40 40 40 39 39 37 35 35 36 35 35 35 34 33
7 5 7 9 12 14 14 12 11 13 13 10 8 9 8 6 7 6 4 4 4 4 3 4 5 5 5 5 4 7 11 11 10 11 15 19 20 19 20 20 22 21 19 19 18 17 17 18 20 26 31 34 37 39 40 42 42 41 42 43 44 44 45 45 43 41 40 40 40 39 40 41 40 40 40 39 38 37 36 36 36 36 36 35 35 33
6 3 4 7 7 6 10 10 8 12 13 10 7 9 9 6 6 6 3 4 4 4 4 3 4 5 5 5 7 11 14 14 12 9 13 19 20 19 19 19 20 19 17 17 17 16 18 19 22 28 32 34 38 38 38 38 38 38 40 40 42 43 43 43 42 41 39 40 39 38 38 39 40 39 39 38 37 37 37 38 37 37 37 36 35 34
5 3 4 6 8 6 5 9 12 13 10 9 8 9 9 4 4 5 2 3 5 3 4 4 4 6 6 7 12 17 16 14 14 11 13 19 21 21 21 20 19 18 17 17 17 17 18 18 22 29 33 34 36 36 35 36 37 38 38 39 40 41 40 40 41 41 40 40 40 39 39 39 40 39 38 36 36 36 37 37 38 38 37 36 36 35
5 3 5 6 6 6 7 8 13 15 11 9 7 8 10 6 5 6 5 3 4 4 4 5 4 7 8 7 12 17 15 14 17 13 12 18 22 23 22 21 20 19 19 19 18 17 18 17 19 25 29 30 31 32 34 35 36 36 37 38 39 39 39 40 41 41 41 40 40 40 40 40 39 39 37 36 35 36 36 36 37 37 36 36 36 36
7 3 5 7 5 9 16 14 11 15 13 10 7 7 9 7 7 8 7 5 6 5 3 4 3 6 8 7 10 14 14 16 18 13 11 16 21 23 21 20 20 21 20 20 19 18 17 16 19 23 26 28 29 30 32 34 34 35 37 38 37 38 40 41 42 42 42 41 40 41 40 39 39 38 38 37 36 37 36 36 36 35 35 36 36 36
8 3 3 6 7 9 15 14 11 12 13 11 8 7 8 9 9 8 6 6 6 6 5 2 3 7 8 5 7 12 15 16 16 12 13 16 18 20 20 19 20 20 20 20 19 17 16 16 17 18 20 23 26 29 32 33 34 34 35 36 36 38 40 41 41 41 41 40 40 40 40 40 39 38 38 38 38 38 37 37 36 35 35 36 35 36
5 3 4 6 5 5 7 6 7 8 10 9 8 9 11 13 11 6 4 5 5 7 8 5 4 7 7 6 4 9 14 15 13 11 14 16 17 17 17 18 19 19 18 19 18 16 16 15 15 15 15 19 24 28 31 33 33 33 34 35 36 37 38 39 39 39 40 40 40 40 40 40 40 39 39 39 38 38 38 38 37 36 37 36 36 36
4 3 3 3 3 4 5 4 2 2 4 6 11 15 14 14 14 7 5 5 6 6 7 6 6 8 8 8 9 4 11 14 11 10 11 15 17 18 16 16 18 17 18 19 18 16 16 15 15 15 15 19 24 27 30 32 32 33 33 34 35 36 37 38 38 38 39 39 39 39 40 41 40 40 40 40 39 38 38 38 38 38 38 38 38 37
2 4 5 6 8 8 7 10 10 8 8 9 13 19 16 13 14 10 5 5 6 6 5 7 10 9 8 8 9 4 6 10 9 10 10 12 16 18 18 17 17 15 16 18 17 16 16 15 16 17 17 20 25 28 29 31 32 32 32 33 36 36 37 38 38 38 38 38 38 38 39 40 41 41 40 40 40 39 39 39 39 38 39 39 39 38
2 4 7 9 12 14 16 20 21 15 13 15 14 18 18 14 14 12 8 7 7 7 5 9 11 9 7 8 8 3 4 8 8 9 10 13 15 16 17 19 19 17 16 16 17 17 17 16 17 17 16 18 24 27 28 30 32 33 33 34 36 36 37 38 38 38 38 37 37 38 39 40 40 41 40 40 40 40 39 39 39 39 39 39 39 39
2 4 8 9 15 20 20 21 20 16 14 16 16 19 20 16 16 14 9 9 9 8 8 10 11 11 7 8 9 6 4 5 8 9 8 11 15 17 18 20 20 19 18 18 18 18 18 17 17 16 16 17 22 25 26 28 30 31 32 33 35 36 37 37 37 37 37 36 38 39 40 39 38 38 39 38 38 39 40 39 39 39 39 39 39 40
2 4 7 11 17 21 19 16 14 12 11 11 12 20 21 16 17 14 8 9 9 8 9 10 11 10 8 8 7 4 1 2 2 6 7 10 14 17 19 21 20 19 18 18 19 19 18 18 17 17 16 16 19 23 24 26 29 31 32 33 34 35 36 37 36 36 36 37 39 40 39 38 37 36 37 37 38 39 39 39 39 39 39 39 40 40
2 4 9 11 12 14 13 11 11 10 9 8 5 14 22 18 15 13 10 8 7 7 7 8 9 7 6 3 2 4 5 6 5 5 8 9 13 16 18 19 19 18 18 18 18 16 15 15 15 16 16 16 20 24 26 27 29 31 31 32 33 32 33 35 35 35 36 37 38 37 37 37 36 36 36 37 38 39 39 40 39 38 39 39 40 40
3 4 7 8 7 8 9 13 16 15 9 6 12 4 12 17 12 10 8 4 2 5 5 6 6 6 4 2 7 7 8 9 7 6 7 7 10 14 17 17 17 18 18 17 16 14 14 14 14 16 16 17 21 25 27 28 28 29 30 31 31 30 30 31 33 33 34 35 36 36 36 37 36 36 36 37 38 39 39 38 38 38 38 39 40 40
4 4 5 6 5 7 10 16 17 13 5 5 9 13 10 3 6 5 4 7 7 1 3 4 6 6 5 7 10 9 10 11 8 5 5 6 8 10 13 15 15 15 15 16 15 14 14 13 13 15 16 18 22 27 29 30 30 30 31 31 31 30 30 30 31 33 35 36 36 36 37 37 36 36 37 37 38 38 37 37 38 39 39 39 40 40
6 5 5 4 3 7 13 17 12 5 4 1 1 11 16 9 15 15 9 11 14 10 4 2 3 2 3 9 14 13 11 10 8 8 8 6 8 8 8 9 9 9 9 10 10 10 10 9 9 12 16 20 24 27 28 30 30 31 32 32 32 32 32 31 31 33 35 36 37 37 37 37 37 37 37 38 38 37 37 38 39 39 39 39 39 39
8 6 4 3 3 6 10 9 4 1 1 2 1 10 15 11 13 17 17 17 18 16 13 8 6 5 3 11 16 15 14 14 14 16 14 10 10 12 12 11 10 11 9 8 7 7 6 7 7 8 12 17 20 22 24 26 27 29 29 30 31 31 32 32 32 32 34 36 37 37 37 37 36 36 37 37 38 37 38 39 39 39 39 39 39 40
10 6 3 4 4 3 5 4 0 5 4 5 7 12 17 15 12 14 18 17 18 17 14 11 8 6 5 10 13 13 16 18 18 17 15 13 13 14 14 13 12 13 11 9 9 8 7 8 9 9 10 12 16 18 21 23 25 25 26 28 30 30 31 31 31 31 32 34 36 36 36 36 36 36 37 37 37 37 38 39 40 40 40 39 38 39
10 6 3 3 3 1 3 3 3 4 5 7 9 12 12 10 11 8 8 10 15 16 13 11 10 8 6 5 6 11 17 20 16 12 12 13 13 13 15 14 13 14 13 11 12 12 13 15 16 14 14 13 10 8 12 18 23 25 25 27 28 29 30 30 30 31 31 32 35 36 37 37 37 36 37 37 37 38 38 39 40 40 39 38 38 37
10 6 3 3 3 4 4 3 3 3 3 5 11 16 13 7 9 8 2 8 14 16 14 13 11 10 9 9 6 4 16 18 11 7 9 10 10 12 15 14 14 14 13 12 14 15 18 22 21 19 21 21 19 15 9 7 15 21 23 26 28 28 28 28 30 31 31 32 34 36 38 39 39 38 38 38 38 38 38 39 39 39 39 39 39 39
10 6 3 2 3 4 4 3 3 1 1 7 16 20 18 13 10 7 3 8 12 15 15 13 13 11 12 11 10 4 13 14 7 4 6 8 10 12 13 14 14 14 15 16 17 17 19 22 23 23 24 23 20 18 16 12 8 9 10 14 20 24 26 28 30 31 32 32 34 36 39 40 41 40 39 39 39 39 39 39 40 39 39 40 40 40
7 4 2 2 3 5 4 2 1 0 1 10 18 19 20 18 9 2 6 5 8 13 13 12 13 13 12 11 10 10 12 9 5 4 5 8 11 12 13 14 13 13 14 17 19 19 21 23 24 22 21 20 18 18 17 15 13 11 8 3 4 11 18 24 28 31 33 33 33 36 38 39 41 42 41 41 40 39 39 40 39 38 38 38 38 38
2 2 2 2 3 5 4 2 1 0 3 12 18 20 20 13 3 6 6 1 6 10 11 10 11 12 12 12 11 10 9 7 6 6 7 10 12 13 12 13 14 16 17 18 21 22 21 22 22 20 20 20 20 20 19 16 14 14 12 9 8 5 5 11 19 26 30 32 33 34 36 38 40 41 42 42 42 40 39 38 37 37 37 36 36 35
2 2 2 2 3 3 3 2 1 1 4 13 19 19 14 5 5 5 3 1 6 9 9 10 11 10 12 13 12 9 9 9 10 10 10 11 11 11 12 12 14 16 18 21 24 23 21 19 20 21 22 23 23 22 20 18 16 15 13 12 13 12 8 5 9 16 23 26 29 32 35 37 38 39 40 40 40 38 36 36 35 35 35 35 34 34
3 2 2 2 2 2 2 2 3 1 5 14 16 13 10 8 5 3 3 4 8 10 9 10 11 11 11 11 12 11 10 11 11 10 10 11 11 11 11 11 12 12 14 16 19 21 20 18 18 18 20 21 22 22 21 20 17 15 14 15 16 14 10 8 7 10 17 24 26 28 32 35 37 38 37 37 37 37 35 34 34 33 34 34 32 32
4 3 1 2 2 2 2 3 3 1 3 9 9 6 6 6 4 3 5 6 8 10 8 9 10 12 11 10 10 10 10 10 10 8 8 9 9 9 10 10 10 10 11 13 15 18 18 15 13 15 18 20 20 20 20 20 18 15 15 17 17 15 12 10 8 7 13 21 25 27 29 32 34 36 36 36 36 36 34 32 32 31 32 33 32 30
4 2 2 3 2 1 1 2 2 1 2 3 5 5 7 8 8 7 8 8 7 8 7 8 10 12 12 10 9 9 9 9 8 8 7 7 7 8 8 8 9 10 11 13 15 18 17 14 13 14 16 18 19 18 18 19 18 16 17 18 18 16 14 13 10 7 10 16 23 25 27 29 32 33 34 34 34 34 32 31 30 30 30 31 30 28
6 4 1 2 3 2 1 3 7 6 4 6 6 6 8 9 7 7 8 8 6 7 7 9 9 10 11 10 9 9 9 8 8 9 8 7 7 8 8 8 9 11 12 13 15 17 18 16 15 15 15 17 18 17 16 17 17 17 17 18 18 17 15 14 11 8 9 12 18 22 23 25 27 29 29 30 32 32 32 32 32 30 29 28 28 27
6 6 4 4 6 4 1 6 11 9 6 7 7 8 10 10 8 7 7 5 3 5 7 9 10 10 10 10 10 9 9 9 9 9 8 8 7 8 9 9 9 11 13 14 15 17 18 16 14 13 13 14 15 15 15 15 15 16 17 17 18 17 15 14 12 9 8 11 15 18 21 22 24 24 24 25 27 28 28 30 31 29 27 26 25 23
6 7 6 6 7 5 1 6 12 8 1 4 6 6 7 9 9 9 7 3 2 4 6 7 8 8 9 9 9 9 9 10 10 9 7 7 7 7 7 7 8 10 13 16 17 16 16 14 12 12 12 13 13 13 14 14 14 15 16 17 17 18 16 14 13 11 7 11 14 17 20 22 22 22 21 20 20 20 20 22 24 24 25 26 25 23
6 7 6 7 7 4 1 8 14 11 5 2 4 5 4 6 8 10 11 8 5 4 5 6 6 5 7 8 8 8 9 9 9 9 8 7 7 8 7 6 8 10 11 14 16 14 13 12 11 11 11 11 10 11 11 12 14 14 15 16 16 16 16 14 12 10 6 10 14 16 19 21 21 22 22 21 19 17 14 13 16 18 20 22 24 24
6 6 6 6 5 3 3 7 9 7 6 9 10 7 6 6 7 9 10 10 10 7 5 5 5 4 5 7 7 7 8 8 8 8 8 6 6 7 7 6 7 9 11 14 15 14 12 11 10 10 10 9 8 8 9 11 13 14 14 14 15 15 15 13 11 7 3 6 11 15 17 19 21 23 25 24 22 19 15 10 10 13 15 17 20 22
5 5 6 5 5 7 7 7 6 5 6 11 12 10 8 6 5 8 9 9 10 10 6 5 6 6 6 7 7 6 6 6 6 7 7 6 7 9 11 10 9 9 9 13 15 13 11 11 10 10 10 8 6 7 8 10 12 13 13 12 13 13 12 10 7 5 2 3 9 14 18 20 22 24 25 24 24 23 20 18 14 10 9 9 12 15
Wind_Direction
183 193 215 217 219 213 214 216 210 222 236 238 223 222 239 244 245 230 225 221 189 187 199 196 197 178 169 172 172 174 174 175 177 177 182 180 179 182 181 185 188 193 198 191 186 183 182 184 182 180 182 183 183 183 184 185 187 188 188 189 189 190 190 191 193 192 189 190 192 192 193 197 199 199 200 204 210 214 211 212 213 214 218 212 204 207
186 212 226 219 215 210 208 212 212 223 239 247 237 234 244 242 247 242 233 227 192 191 208 197 194 181 172 175 174 173 175 179 180 181 184 182 182 184 183 186 189 192 192 188 187 184 182 184 183 181 182 182 183 184 184 185 187 189 189 190 190 189 189 191 194 193 192 192 192 191 193 197 199 200 202 204 207 214 215 214 215 216 217 213 205 206
200 226 227 212 200 203 196 200 210 222 233 242 245 241 248 244 257 267 256 246 199 195 206 193 194 182 172 174 173 174 179 183 183 184 185 182 181 184 184 186 188 189 188 187 189 186 184 184 183 181 181 184 185 185 186 186 186 188 190 191 190 189 190 192 194 194 194 194 194 195 196 198 200 203 205 203 203 212 217 214 216 218 217 214 208 206
202 228 220 195 188 204 201 197 202 218 229 234 241 232 243 247 248 258 256 257 218 211 195 188 192 173 165 172 174 178 184 186 186 187 186 182 181 183 185 184 185 186 188 189 191 190 186 184 184 183 182 183 184 184 186 186 186 187 189 191 191 190 191 192 194 196 195 194 195 197 199 200 201 202 203 202 203 211 216 214 216 219 218 216 212 209
219 219 174 182 204 206 205 203 196 207 223 229 237 229 236 245 236 240 255 303 287 248 193 175 176 170 167 171 180 185 186 187 187 187 187 187 185 184 183 183 186 187 186 187 190 191 189 186 186 186 183 182 183 184 185 186 187 188 189 191 191 191 192 192 194 195 195 193 192 193 194 196 198 199 200 203 206 211 214 215 215 217 218 216 214 212
232 212 157 182 204 207 210 210 198 199 211 225 234 230 230 242 244 248 265 290 293 278 204 166 159 233 192 177 182 186 186 188 187 187 190 191 189 185 183 185 188 189 187 187 190 190 190 189 186 186 185 183 184 186 186 187 188 188 190 190 191 191 191 192 193 193 193 191 189 188 186 186 189 193 199 204 206 207 212 214 214 214 216 216 215 214
228 211 181 188 195 204 213 216 205 197 200 221 226 228 231 241 249 255 268 259 240 272 228 176 171 203 208 191 184 181 185 187 186 190 192 191 190 187 186 187 187 188 188 189 191 191 190 189 185 185 185 184 186 188 188 188 188 188 189 189 190 190 191 191 192 192 192 191 189 190 189 188 189 192 199 204 205 206 209 212 213 213 215 216 216 216
203 202 203 201 195 202 210 216 207 195 203 219 211 221 234 242 245 247 257 251 239 278 266 200 186 166 191 204 190 181 183 184 186 193 195 192 190 188 188 188 187 187 186 186 189 191 191 189 187 186 187 187 187 187 187 188 188 188 189 189 190 190 190 191 191 192 192 192 191 192 193 194 195 197 202 206 207 208 210 211 212 214 215 215 215 217
189 201 203 206 205 204 208 212 201 195 212 217 187 208 230 242 247 242 247 251 241 273 285 243 210 184 211 211 193 183 181 183 188 194 196 195 191 188 188 188 188 188 186 184 185 189 191 190 189 187 186 187 187 185 186 187 188 189 188 188 189 189 190 191 191 192 194 195 195 194 195 197 200 202 205 207 208 209 211 212 212 214 215 214 214 216
190 200 195 207 219 210 209 213 200 198 214 212 197 213 221 235 245 235 234 242 215 224 254 247 214 216 249 217 192 185 182 186 192 195 197 194 190 190 188 187 188 187 187 187 186 188 190 191 190 187 185 186 185 185 186 187 188 189 188 187 188 189 190 191 192 193 195 196 197 197 197 198 199 201 203 205 208 209 211 213 213 214 214 213 212 214
226 202 187 206 223 211 199 208 205 203 207 197 204 228 231 236 246 236 223 216 198 219 239 236 219 215 247 237 191 186 190 190 191 196 197 192 191 192 189 187 187 184 186 189 189 190 190 190 189 186 185 184 184 185 184 185 187 188 188 188 189 190 191 192 193 194 195 196 198 199 199 200 200 199 200 201 204 207 209 211 212 213 212 212 212 213
232 226 200 202 213 207 194 205 207 203 204 198 192 214 234 253 267 253 211 188 203 231 236 225 218 211 228 253 205 196 201 194 188 191 193 191 191 193 192 188 186 186 186 186 188 190 187 185 185 185 186 184 182 182 183 184 185 186 189 190 190 191 192 193 194 195 196 196 198 200 201 201 201 199 199 200 202 204 206 209 210 210 210 211 212 213
223 229 230 215 208 205 202 207 205 199 201 204 197 195 207 228 245 231 209 198 203 227 235 208 205 214 223 238 214 203 208 201 189 190 192 191 189 191 193 188 187 187 186 185 184 186 185 183 182 183 185 183 180 181 183 184 184 185 187 189 190 192 193 194 195 196 197 198 199 201 202 202 202 201 201 202 203 203 204 206 207 208 208 210 211 213
223 225 226 226 216 202 205 204 194 200 197 197 200 191 191 200 215 223 228 226 197 219 232 196 191 220 231 238 218 207 213 206 193 190 193 192 187 188 191 188 189 188 186 186 184 184 186 185 184 183 183 182 181 182 183 184 185 185 186 189 190 193 194 194 195 197 198 200 201 202 203 203 203 203 203 203 204 204 204 205 206 208 210 211 214 215
224 228 216 220 214 181 204 209 182 180 192 201 197 184 196 198 194 208 210 200 199 227 234 194 188 200 200 222 210 202 214 213 201 187 189 193 188 184 189 187 188 188 186 187 186 186 188 186 184 183 183 184 183 183 183 184 186 186 187 189 190 192 193 194 195 196 198 201 202 203 204 204 204 204 204 205 205 205 204 205 206 209 212 214 218 220
228 238 202 210 214 185 202 208 182 173 189 204 192 186 210 196 165 192 207 181 165 190 229 203 201 205 204 238 221 200 208 214 211 184 176 191 191 182 187 188 188 189 186 187 188 188 189 186 184 184 185 186 185 184 184 185 186 187 189 190 192 193 193 194 195 196 199 201 203 204 204 205 205 206 206 206 207 206 206 206 207 210 214 217 219 221
241 243 208 198 212 212 209 202 190 187 180 188 196 200 200 167 157 202 250 246 137 173 240 223 220 266 269 273 258 223 215 219 215 184 173 187 189 182 185 189 190 190 186 187 188 188 188 185 185 186 186 187 186 185 186 187 188 189 190 191 193 194 194 195 197 198 200 201 202 205 205 206 207 207 207 208 208 208 208 208 209 212 215 218 219 221
345 271 260 222 212 215 216 211 207 198 168 165 200 194 147 138 185 184 212 272 177 193 262 261 223 238 224 247 260 231 224 234 217 188 180 185 184 183 187 190 190 188 187 190 188 187 187 185 186 188 188 188 188 187 188 189 190 190 191 192 193 194 195 197 198 200 201 201 202 205 206 207 208 208 209 209 210 210 209 209 210 211 214 216 218 220
347 296 268 247 221 210 205 210 221 211 193 186 188 169 147 173 203 182 182 212 186 192 263 286 241 215 202 224 243 220 223 235 222 190 181 183 181 183 189 191 191 188 188 189 187 187 187 187 188 188 188 189 189 190 190 190 190 190 192 193 193 195 197 198 199 200 201 202 203 205 206 207 208 209 210 210 210 210 210 211 211 212 213 215 218 220
328 309 272 264 258 236 202 197 216 217 205 191 164 166 177 184 183 176 182 175 159 189 224 254 252 236 225 209 208 221 223 225 222 192 176 182 182 183 188 190 190 187 187 188 186 187 187 188 190 189 189 188 189 191 190 188 189 190 191 193 194 196 197 197 199 200 201 203 204 205 207 208 209 211 211 211 210 209 210 211 212 213 214 215 217 220
333 341 297 297 325 310 223 197 207 212 205 187 172 182 188 167 148 175 198 162 148 163 189 198 237 252 246 211 211 225 224 220 222 201 176 182 183 185 189 189 186 184 184 187 186 186 187 187 189 190 190 189 188 189 187 187 189 190 191 192 194 195 195 196 198 200 201 203 204 205 207 208 210 211 212 212 212 212 212 212 212 213 214 214 215 217
343 349 297 293 331 306 259 237 211 206 208 194 181 189 189 165 144 179 219 214 168 159 168 178 221 254 246 215 215 225 220 217 224 209 176 179 182 186 192 186 181 181 183 186 185 185 187 186 187 189 190 188 187 186 186 187 189 190 191 192 193 194 195 196 198 200 202 203 204 206 208 209 209 210 211 212 214 215 215 214 213 213 213 213 214 214
312 301 273 270 287 268 267 275 241 210 208 201 189 189 190 177 161 181 208 204 188 202 192 166 209 263 254 215 208 223 219 214 219 208 173 175 182 187 191 183 177 181 184 184 184 184 184 184 184 186 188 188 186 185 186 188 189 190 192 192 192 194 195 197 198 200 202 203 205 207 208 209 209 210 210 212 214 216 217 217 216 214 213 213 214 214
316 331 317 294 294 272 267 277 269 229 207 202 201 184 184 194 185 177 185 175 179 206 207 195 246 270 270 233 202 220 223 215 212 196 168 172 184 188 185 177 177 183 183 182 183 184 182 181 181 183 186 186 185 184 187 189 191 191 192 192 193 195 197 198 199 200 201 202 205 206 207 208 209 209 210 211 213 215 217 218 218 217 215 214 214 214
320 354 353 323 311 279 262 271 279 246 211 204 202 190 192 197 186 157 141 159 189 205 189 178 231 254 269 288 270 226 216 212 204 184 166 169 179 183 179 176 179 181 181 182 183 180 178 177 179 183 186 185 184 185 188 191 192 192 192 192 193 196 197 198 198 199 201 202 204 206 207 208 208 209 209 211 213 215 217 218 218 218 217 216 215 215
301 302 300 303 284 244 228 226 248 280 252 227 203 197 197 190 182 166 130 159 202 210 185 178 222 258 283 308 314 254 191 191 186 164 158 168 173 174 173 177 182 180 179 180 179 177 176 178 181 183 183 184 185 186 190 191 192 193 193 193 194 196 197 197 198 199 201 202 204 205 207 207 208 208 210 211 213 214 216 217 218 218 218 217 216 216
285 275 254 243 252 259 270 275 283 310 306 269 218 199 193 185 184 176 144 167 189 181 186 210 223 251 282 293 309 324 153 164 162 141 143 163 171 171 172 176 181 180 177 177 176 176 176 178 182 183 182 183 185 187 190 191 192 193 193 193 195 196 196 197 198 199 201 202 204 206 208 208 208 208 210 211 213 214 216 217 217 218 218 218 217 216
284 291 273 253 261 271 277 279 282 289 284 274 248 206 189 182 183 182 183 185 162 149 200 237 227 229 259 269 276 284 131 137 149 151 151 162 170 172 172 175 178 177 175 177 176 175 177 180 183 183 182 181 183 186 189 190 193 194 193 193 195 196 197 197 198 199 200 201 203 207 209 210 209 209 210 212 213 215 216 216 217 218 218 218 217 217
303 278 279 291 297 291 282 275 272 266 259 268 255 211 190 185 187 189 199 185 154 157 203 228 221 209 227 252 247 234 186 149 161 165 152 156 167 170 171 174 178 177 175 177 178 177 180 181 181 180 180 181 182 183 185 188 192 194 194 194 195 196 197 196 197 199 199 200 203 207 210 211 210 210 210 212 214 215 216 217 217 218 218 218 218 218
312 267 291 314 308 295 286 279 274 265 264 284 254 200 185 191 193 184 190 190 173 180 198 204 207 209 224 234 224 217 213 59 131 145 135 148 162 167 172 174 176 177 176 179 182 183 182 180 178 177 176 179 183 183 184 187 190 193 194 194 195 196 196 196 196 198 199 201 205 207 209 210 210 210 210 211 214 216 216 217 217 218 218 219 219 220
320 294 312 322 310 293 292 314 332 310 283 310 302 192 185 192 196 185 184 191 192 201 189 172 185 219 260 251 127 89 76 64 62 107 132 158 165 163 168 172 173 174 177 183 185 182 178 175 174 175 176 181 184 184 185 188 191 194 195 196 196 196 195 195 196 198 199 203 206 207 207 208 209 210 211 212 214 216 217 217 217 218 218 219 220 220
310 299 309 327 320 291 304 336 337 312 289 1 18 340 205 194 190 186 169 141 201 214 157 127 161 218 256 119 84 67 76 77 63 77 107 140 159 159 162 167 172 174 177 182 180 175 175 175 174 176 180 184 184 184 188 190 192 195 197 198 199 199 197 196 196 199 201 204 207 207 207 208 208 209 211 212 214 215 217 217 217 217 218 219 220 221
285 288 312 336 319 287 313 328 318 307 326 38 18 346 310 224 127 113 92 42 13 3 136 159 193 211 204 129 91 67 62 62 49 42 74 109 127 144 156 159 165 171 172 173 171 172 175 175 175 180 181 182 184 187 189 190 191 196 198 199 200 201 201 199 197 199 202 205 206 207 207 207 208 209 210 212 214 215 216 216 217 217 218 219 220 221
276 282 300 323 303 289 311 319 312 329 38 80 350 359 353 26 84 88 64 24 16 13 353 258 182 169 165 117 99 89 75 64 54 44 45 72 93 97 107 119 130 135 139 149 156 165 171 167 169 176 178 182 186 189 190 191 193 196 197 198 199 200 201 201 200 199 201 203 205 206 207 207 207 208 210 212 213 214 214 215 217 218 218 220 220 221
275 281 285 282 268 283 307 325 331 157 200 249 328 13 6 23 74 76 56 29 14 7 355 355 37 42 81 106 103 102 95 80 64 51 44 50 73 83 81 78 84 90 91 99 106 111 127 136 143 158 173 184 187 188 190 193 196 197 197 197 199 200 201 202 202 201 201 202 204 205 205 206 206 207 209 211 211 212 213 214 216 217 218 219 220 221
261 270 284 274 258 281 325 350 220 217 269 337 8 6 4 5 12 39 51 31 8 7 2 357 22 45 82 101 103 105 98 82 65 50 40 43 57 73 80 77 78 82 81 82 86 88 96 105 112 127 153 178 188 191 195 198 198 196 197 199 200 202 203 204 205 205 203 202 203 205 205 205 205 206 208 210 210 210 211 213 215 216 216 218 220 222
247 253 279 275 263 328 343 316 272 266 312 357 3 345 346 349 333 349 56 37 7 9 5 358 19 34 36 58 94 105 92 78 65 44 30 36 48 64 75 76 75 77 77 77 79 79 78 80 84 90 99 109 121 149 186 200 200 197 196 199 201 203 204 206 208 208 206 203 203 204 204 205 205 206 207 208 208 209 211 212 214 215 215 216 219 221
235 227 248 277 295 347 347 312 321 341 337 347 332 316 310 304 291 285 85 47 9 1 1 6 17 27 26 3 328 84 85 74 63 36 19 28 42 58 69 71 68 69 69 67 69 70 70 72 73 72 73 73 67 63 77 152 188 195 196 199 201 203 205 208 211 211 209 206 204 204 204 205 205 206 207 207 208 210 211 212 214 215 214 215 217 220
236 224 236 270 272 309 324 302 314 21 57 333 321 312 313 317 290 251 111 47 0 347 356 10 14 23 39 18 335 16 83 82 76 39 13 26 43 53 64 65 61 61 60 57 61 65 68 70 69 61 57 55 49 46 52 69 107 150 179 197 203 205 208 211 212 212 212 210 207 206 205 205 205 206 207 208 210 210 211 212 214 215 214 215 216 219
250 240 237 262 262 281 291 282 296 97 332 322 318 312 312 313 298 166 95 47 341 335 347 10 21 24 36 34 21 43 69 83 92 59 18 31 47 50 56 60 57 56 54 51 52 57 62 63 61 55 51 47 42 39 40 47 58 60 53 60 200 214 219 219 217 216 215 214 211 208 207 205 205 205 207 209 211 211 211 213 213 213 214 215 217 219
280 285 259 257 266 277 277 270 277 133 325 323 320 314 308 306 338 75 79 42 316 330 345 9 27 32 35 43 50 51 49 52 64 52 33 42 50 48 51 57 55 53 52 47 44 47 53 57 58 55 50 44 41 38 36 39 43 38 33 40 38 5 279 242 231 225 221 217 213 210 208 207 206 206 207 209 211 212 212 212 212 212 213 214 215 217
13 334 317 297 283 279 270 276 285 163 336 331 325 319 321 347 68 59 54 338 322 333 354 13 24 34 39 47 57 58 50 43 41 38 33 37 46 48 49 53 54 50 48 45 41 41 43 48 51 50 46 41 39 38 37 41 42 34 32 33 19 2 351 318 260 239 229 222 216 211 209 208 208 208 208 209 209 210 211 211 211 211 212 212 214 216
25 342 327 321 311 312 329 9 28 45 321 331 334 339 360 39 64 13 20 22 346 345 4 18 23 29 37 50 56 54 52 46 38 36 32 29 35 41 43 48 54 52 49 46 42 41 42 44 45 45 43 40 38 36 36 38 37 30 27 20 4 353 349 342 310 258 237 227 219 214 211 208 207 207 207 207 208 208 209 209 209 209 210 210 211 214
32 18 333 304 324 359 5 21 42 148 282 332 349 1 15 44 67 38 35 32 359 348 2 18 24 25 29 45 53 48 49 47 38 35 35 32 34 36 36 40 45 48 50 49 46 45 48 52 52 48 43 40 38 36 34 34 31 24 16 7 359 354 348 338 326 287 247 230 221 217 214 210 207 205 205 205 205 206 206 207 206 207 208 209 209 211
2 333 231 250 290 332 302 339 355 223 207 14 20 13 8 26 45 44 44 40 8 346 354 11 20 22 24 33 43 42 41 38 30 27 29 30 34 38 41 44 43 44 45 43 41 42 45 51 53 47 41 38 38 36 33 32 30 21 9 1 358 355 348 341 331 301 261 237 224 219 215 210 206 204 204 203 202 202 202 202 203 205 206 207 208 209
322 314 260 293 313 296 287 7 3 6 50 56 40 22 15 17 23 35 49 48 8 344 358 7 7 13 19 24 33 35 29 24 22 20 14 9 19 30 31 33 36 38 39 36 33 34 38 43 46 43 38 34 32 31 30 30 29 20 6 358 357 353 346 344 336 305 266 242 228 219 212 207 203 201 202 201 200 200 200 200 201 203 204 204 206 208
332 356 19 355 334 318 8 30 12 8 48 62 41 22 11 3 3 22 48 60 12 359 14 6 355 1 11 17 25 26 19 19 20 15 8 4 10 20 23 24 23 24 27 27 27 32 38 42 41 39 36 29 23 22 22 22 21 15 3 356 354 350 342 340 339 318 266 234 221 212 207 202 198 195 195 194 195 197 199 200 201 201 200 201 202 204
347 18 24 352 332 310 329 30 5 341 240 116 79 50 14 356 355 359 2 11 24 27 27 10 356 357 359 3 14 16 12 15 18 15 12 9 3 5 16 22 19 19 23 24 25 33 42 41 37 35 34 26 18 13 11 9 7 3 357 351 348 346 341 335 334 326 276 226 210 203 200 197 190 183 178 176 181 186 192 197 199 200 201 201 201 202
1 26 14 337 320 296 330 20 3 343 311 333 27 49 33 358 348 343 337 336 344 14 35 22 3 355 351 352 3 11 9 10 13 11 11 12 7 0 359 7 17 20 21 21 22 30 39 38 34 33 32 27 19 9 0 357 357 355 352 347 343 343 341 332 327 325 286 217 202 195 190 184 177 169 161 156 157 160 166 182 194 198 202 204 206 209
13 21 2 340 321 306 344 5 356 337 307 305 315 337 359 355 344 333 328 329 329 337 15 22 359 354 355 346 353 9 8 360 3 9 6 4 6 360 348 354 13 14 16 24 27 29 35 37 36 33 32 30 21 7 354 346 346 346 343 340 338 339 339 332 320 313 290 202 190 184 174 164 159 157 155 153 150 143 133 137 170 191 199 206 210 213
22 5 348 335 299 291 305 323 325 309 289 288 295 308 321 334 340 325 315 316 315 315 341 18 4 359 0 346 345 5 8 347 350 7 3 352 360 2 356 355 359 358 15 36 41 37 38 41 39 35 35 35 22 6 353 342 341 343 339 335 337 339 336 329 313 291 264 182 176 172 162 154 151 151 152 152 150 142 128 112 107 123 155 184 202 207